STARLINK-38060, 69716

Orbit data source: Space-Track

STARLINK-38060, 69716 is a payload satellite owned by SpaceX/Seattle (US) in SSO that was launched on Sun, 28 Jun 2026 UTC via an FALCON 9 launch vehicle from the Air Force Western Test Range (AFWTR). Payload-class satellites include a variety of spacecraft equipped with specific instruments for various scientific and technological missions. These include communications satellites like Starlink; space stations such as the ISS; scientific satellites like the Hubble; Earth observation satellites from companies like Planet Labs, Umbra, and HawkEye 360; GPS; miniature CubeSats for education and research; and military/defense satellites.

Loading next visibility...
Identifier
69716, 2026-147N
Orbit
SSO
Country
Flag of USUS
Related business
Manufacturer
SpaceX/Seattle
Mission
Operational spacecraft
Bus & Motor
STARLINK V2MO, Unknown motor
Mass
575 kg wet, ~530 kg dry
Launch date (UTC)
2026-06-28 (2 weeks ago)
Launch vehicle
FALCON 9
Launch site
Air Force Western Test Range (AFWTR)
Object type
Payload
Rocket body
Debris
Shape & HBR
Unknown shape, 17.7 m
Radar Cross Section
Large (>1 m²)

Expand to show TLE details & history
Last TLE update: 7 hours ago

TLE from 7 hours ago
0 STARLINK-38060
1 69716U 26147N   26193.05837810  .00175413  00000-0  89499-3 0  9995
2 69716  97.2840 229.2877 0001299 124.5105 235.6286 15.80894957  3367
Epoch: 2026-07-12T01:24Z
TLE epoch observation values (Epoch: 2026-07-12T01:24:03.867Z)
Latitude
-0.00006°
Longitude
-81.6911°
Altitude
331.577 km
Speed
7.709 km/s
True Right ascension
15h 17m 09s
True Declination
0° 00' 00"
Sunlit
Object was in full shadow at epoch
Visualization orbit readout
Latitude
Unknown
Longitude
Unknown
Altitude
Unknown
Speed
Unknown
Apparent Right ascension
Unknown
Apparent Declination
Unknown
Sunlit
N/A
Visualization observer readout
Local Sidereal Time
21:00:05
Azimuth
Unknown
Elevation
Unknown
Doppler factor
Unknown
Orbital elements
Apogee altitude
325.659 km
Perigee altitude
323.918 km
Semi-major axis
6,702.925 km
Eccentricity
0.00013
Inclination
97.284°
RAAN
229.2877°
Arg. of periapsis
124.5105°
True anomaly
235.61631°
Mean anomaly
235.6286°
Eccentric anomaly
235.62246°
Mean motion
3.955 °/min
Orbital period
91.02 mins
BSTAR
0.00089499
Loading maneuver chart data...
Computing Atmospheric mass density...
Loading historical data...
Loading historical data...
Loading historical data...
Loading historical data...
Loading historical data...
Loading historical data...
Loading historical data...

Documentation

Showing up to 5 results
|